TimeEST,TemperatureF,Dew PointF,Humidity,Sea Level PressureIn,VisibilityMPH,Wind Direction,Wind SpeedMPH,Gust SpeedMPH,PrecipitationIn,Events,Conditions,WindDirDegrees,DateUTC
12:53 AM,26.1,14.0,60,30.21,10.0,NW,6.9,-,N/A,,Overcast,320,2013-01-21 05:53:00
1:53 AM,26.1,12.9,58,30.18,10.0,NW,9.2,-,N/A,,Overcast,310,2013-01-21 06:53:00
2:53 AM,25.0,12.0,58,30.18,10.0,WNW,5.8,-,N/A,,Overcast,300,2013-01-21 07:53:00
3:53 AM,25.0,12.0,58,30.17,10.0,WNW,4.6,-,N/A,,Overcast,290,2013-01-21 08:53:00
4:53 AM,25.0,12.9,60,30.15,10.0,West,3.5,-,N/A,,Overcast,270,2013-01-21 09:53:00
5:53 AM,25.0,12.9,60,30.15,10.0,West,6.9,-,N/A,,Overcast,280,2013-01-21 10:53:00
6:53 AM,25.0,14.0,63,30.15,10.0,West,8.1,-,N/A,,Overcast,270,2013-01-21 11:53:00
7:22 AM,24.8,14.0,64,30.13,10.0,West,8.1,-,N/A,,Overcast,270,2013-01-21 12:22:00
7:53 AM,24.1,14.0,65,30.15,10.0,WNW,10.4,-,N/A,,Overcast,290,2013-01-21 12:53:00
8:05 AM,24.8,14.0,64,30.12,10.0,West,9.2,-,N/A,,Overcast,270,2013-01-21 13:05:00
8:53 AM,24.1,12.9,62,30.16,10.0,West,12.7,17.3,N/A,,Mostly Cloudy,260,2013-01-21 13:53:00
9:48 AM,24.8,15.8,69,30.12,7.0,WNW,6.9,-,0.00,Snow,Light Snow,290,2013-01-21 14:48:00
9:53 AM,24.1,15.1,69,30.15,7.0,West,9.2,-,0.00,Snow,Light Snow,280,2013-01-21 14:53:00
10:27 AM,24.8,12.2,59,30.13,10.0,West,10.4,18.4,0.00,,Mostly Cloudy,270,2013-01-21 15:27:00
10:51 AM,24.8,14.0,64,30.13,2.5,West,11.5,20.7,0.00,Snow,Light Snow,260,2013-01-21 15:51:00
10:53 AM,24.1,15.1,69,30.16,2.5,West,12.7,20.7,0.00,Snow,Light Snow,260,2013-01-21 15:53:00
11:01 AM,26.6,15.8,64,30.13,4.0,West,13.8,-,0.00,Snow,Light Snow,270,2013-01-21 16:01:00
11:45 AM,23.0,15.8,74,30.13,1.8,WNW,15.0,24.2,0.00,Snow,Light Snow,290,2013-01-21 16:45:00
11:53 AM,23.0,15.1,72,30.15,1.0,WNW,17.3,24.2,0.00,Snow,Light Snow,290,2013-01-21 16:53:00
11:57 AM,23.0,15.8,74,30.13,2.0,WNW,19.6,25.3,0.00,Snow,Light Snow,290,2013-01-21 16:57:00
12:05 PM,21.2,14.0,74,30.13,4.0,WNW,19.6,25.3,0.00,Snow,Light Snow,300,2013-01-21 17:05:00
12:11 PM,21.2,15.8,80,30.13,1.8,WNW,13.8,25.3,0.00,Snow,Light Snow,290,2013-01-21 17:11:00
12:22 PM,23.0,14.0,68,30.12,3.0,West,16.1,21.9,0.00,Snow,Light Snow,270,2013-01-21 17:22:00
12:48 PM,24.8,8.6,50,30.12,9.0,West,12.7,29.9,0.00,,Overcast,270,2013-01-21 17:48:00
12:53 PM,26.1,8.1,47,30.15,10.0,West,17.3,31.1,0.00,,Overcast,280,2013-01-21 17:53:00
1:53 PM,21.9,5.0,48,30.15,10.0,WNW,18.4,28.8,N/A,,Mostly Cloudy,290,2013-01-21 18:53:00
2:53 PM,24.1,3.9,42,30.16,10.0,WNW,21.9,28.8,N/A,,Mostly Cloudy,290,2013-01-21 19:53:00
3:53 PM,21.9,1.0,40,30.18,10.0,West,18.4,27.6,N/A,,Scattered Clouds,260,2013-01-21 20:53:00
4:53 PM,19.9,-0.0,42,30.20,10.0,West,12.7,24.2,N/A,,Clear,270,2013-01-21 21:53:00
5:53 PM,19.0,-0.0,43,30.22,10.0,West,13.8,23.0,N/A,,Clear,270,2013-01-21 22:53:00
6:53 PM,17.1,-0.0,47,30.23,10.0,WNW,18.4,28.8,N/A,,Clear,290,2013-01-21 23:53:00
7:53 PM,16.0,1.9,54,30.25,10.0,WNW,13.8,17.3,N/A,,Clear,290,2013-01-22 00:53:00
8:53 PM,15.1,-0.0,51,30.27,10.0,WNW,15.0,23.0,N/A,,Clear,290,2013-01-22 01:53:00
9:53 PM,14.0,-0.0,54,30.29,10.0,West,9.2,19.6,N/A,,Mostly Cloudy,270,2013-01-22 02:53:00
10:53 PM,12.9,-2.0,51,30.30,10.0,NW,13.8,-,N/A,,Clear,310,2013-01-22 03:53:00
11:53 PM,12.0,-2.0,53,30.31,10.0,West,5.8,-,N/A,,Clear,280,2013-01-22 04:53:00